FENGYUN 1C DEB, 31769

Orbit data source: Space-Track

FENGYUN 1C DEB, 31769 is space debris in SSO originally from a launch on Mon, 10 May 1999 UTC launched from the Taiyaun Space Center, China (TSC). Fengyun 1C debris stems from the Chinese weather satellite Fengyun-1C, which was intentionally destroyed by a Chinese anti-satellite missile in 2007. This event dramatically increased the amount of space debris, with thousands of trackable fragments posing hazards to satellites and human spaceflight. The Fengyun 1C debris cloud has become a focal point in discussions about space sustainability and the need for international regulations to prevent the creation of new debris.

Loading next visibility...
Identifier
31769, 1999-025CFU
Orbit
SSO
Country
Flag of CNCN / PRC
Related business
Manufacturer
Unknown
Mission
Spacecraft
Bus & Motor
Unknown
Mass
Unknown
Launch date (UTC)
1999-05-10 (27 years ago)
Launch vehicle
Unknown
Launch site
Taiyaun Space Center, China (TSC)
Object type
Payload
Rocket body
Debris
Shape & HBR
Unknown shape, 1.1 m
Radar Cross Section
Medium (>0.1 m² and <1 m²)

Expand to show TLE details & history
Last TLE update: 2 weeks ago

TLE from 2 weeks ago
0 FENGYUN 1C DEB
1 31769U 99025CFU 26222.84260395  .00004180  00000-0  12716-2 0  9994
2 31769  98.4293 230.1582 0069945  92.6115 268.3083 14.41171080676018
Epoch: 2026-08-10T20:13Z
TLE epoch observation values (Epoch: 2026-08-10T20:13:20.981Z)
Latitude
-0.00003°
Longitude
-32.49865°
Altitude
759.406 km
Speed
7.474 km/s
True Right ascension
15h 20m 37s
True Declination
0° 00' 00"
Sunlit
Object was in daylight at epoch
Visualization orbit readout
Latitude
Unknown
Longitude
Unknown
Altitude
Unknown
Speed
Unknown
Apparent Right ascension
Unknown
Apparent Declination
Unknown
Sunlit
N/A
Visualization observer readout
Local Sidereal Time
09:24:37
Azimuth
Unknown
Elevation
Unknown
Doppler factor
Unknown
Orbital elements
Apogee altitude
801.619 km
Perigee altitude
701.879 km
Semi-major axis
7,129.886 km
Eccentricity
0.00699
Inclination
98.4293°
RAAN
230.1582°
Arg. of periapsis
92.6115°
True anomaly
267.50737°
Mean anomaly
268.3083°
Eccentric anomaly
267.90781°
Mean motion
3.60512 °/min
Orbital period
99.86 mins
BSTAR
0.0012716
Loading maneuver chart data...
Computing Atmospheric mass density...

Documentation

Showing up to 5 results
|